Home   Weather   Gurgaon   Past weeks

Flag for India Past Weather in Gurgaon, Haryana, India — Yesterday and Last 2 Weeks

Now
86 °F

Fog.


Feels Like: 99 °F
Forecast: 82 / 91 °F
Wind: 10 mph from Southeast

Location: New Delhi Palam Airport

Current Time: Aug 20, 2017 at 9:48:53 am

Latest Report: Aug 20, 2017 at 9:00 am


Visibility: 3 mi

Pressure: 29.71 "Hg

Humidity: 79%

Dew Point: 79 °F

Location of GurgaonLocation

Past Weather in Gurgaon — Graph

°F

Gurgaon Temperature Yesterday

Maximum temperature yesterday: 88 °F (at 12:00 am)
Minimum temperature yesterday: 79 °F (at 9:30 am)
Average temperature yesterday: 84 °F

High & Low Weather Summary for the Past Weeks

 TemperatureHumidityPressure
High100 °F (Aug 18, 3:00 pm)100% (Aug 7, 3:00 pm)29.74 "Hg (Aug 7, 3:00 pm)
Low79 °F (Aug 7, 3:00 pm)40% (Aug 18, 5:00 pm)29.47 "Hg (Aug 11, 5:00 pm)
Average88 °F74%29.59 "Hg
* Reported Aug 5 8:30 am — Aug 20 8:30 am, Gurgaon. Weather by CustomWeather, © 2017

Note: Actual official high and low records may vary slightly from our data, if they occured in-between our weather recording intervals... More about our weather records

Advertising

Gurgaon Weather History for the Previous 24 Hours

Scroll right to see more
 ConditionsComfort  
Time TempWeatherWind HumidityBarometerVisibility
8:30 am
Sun, Aug 20
86 °FHaze.8 mph79%29.71 "Hg2 mi
8:00 am84 °FHaze.9 mph84%29.71 "Hg2 mi
7:30 am82 °FFog.9 mph89%29.71 "Hg2 mi
7:00 am82 °FFog.9 mph89%29.71 "Hg2 mi
6:30 am81 °FFog.8 mph94%29.68 "Hg2 mi
5:30 am81 °FFog.8 mph94%29.68 "Hg2 mi
5:00 am81 °FFog.8 mph94%29.68 "Hg2 mi
4:30 am81 °FFog.8 mph94%29.68 "Hg2 mi
4:00 am81 °FFog.8 mph94%29.68 "Hg2 mi
3:30 am81 °FFog.8 mph94%29.68 "Hg1 mi
3:00 am82 °FFog.8 mph89%29.68 "Hg1 mi
2:30 am82 °FFog.9 mph89%29.68 "Hg1 mi
2:00 am82 °FFog.8 mph89%29.68 "Hg1 mi
1:30 am82 °FFog.9 mph89%29.68 "Hg1 mi
1:00 am82 °FFog.6 mph89%29.68 "Hg1 mi
12:30 am82 °FFog.5 mph89%29.68 "Hg1 mi
12:00 am82 °FFog.6 mph89%29.68 "Hg1 mi
11:30 pm
Sat, Aug 19
82 °FFog.5 mph89%29.68 "Hg1 mi
11:00 pm82 °FFog.5 mph89%29.68 "Hg1 mi
10:30 pm82 °FFog.6 mph89%29.68 "Hg1 mi
10:00 pm82 °FFog.5 mph89%29.68 "Hg1 mi
9:30 pm82 °FFog.3 mph89%29.68 "Hg1 mi
9:00 pm82 °FFog.6 mph89%29.68 "Hg1 mi
8:30 pm82 °FFog.5 mph89%29.68 "Hg1 mi
8:00 pm82 °FFog.6 mph89%29.65 "Hg1 mi
7:30 pm82 °FFog.5 mph89%29.65 "Hg1 mi
7:00 pm82 °FFog.7 mph89%29.65 "Hg1 mi
6:00 pm82 °FFog.7 mph89%29.65 "Hg1 mi
5:30 pm82 °FFog.6 mph89%29.65 "Hg1 mi
5:00 pm82 °FFog.8 mph89%29.65 "Hg1 mi
4:30 pm82 °FFog.7 mph89%29.65 "Hg1 mi
4:00 pm84 °FFog.8 mph89%29.65 "Hg1 mi
3:30 pm84 °FFog.8 mph89%29.65 "Hg1 mi
3:00 pm84 °FFog.7 mph89%29.65 "Hg1 mi
2:30 pm84 °FFog.8 mph89%29.68 "Hg1 mi
2:00 pm84 °FFog.8 mph89%29.68 "Hg1 mi
1:30 pm84 °FFog.7 mph89%29.68 "Hg1 mi
1:00 pm84 °FFog.7 mph89%29.68 "Hg1 mi
12:00 pm84 °FFog.6 mph84%29.71 "Hg1 mi
11:30 am82 °FFog.5 mph89%29.71 "Hg1 mi
11:00 am82 °FFog.8 mph94%29.71 "Hg1 mi
10:30 am81 °FFog.2 mph94%29.71 "Hg1 mi
10:00 am81 °FDrizzle. More clouds than sun.2 mph94%29.71 "Hg1 mi
9:30 am79 °FThunderstorms. More clouds than sun.5 mph94%29.71 "Hg1 mi
9:00 am81 °FThunderstorms. More clouds than sun.12 mph94%29.71 "Hg1 mi
Weather by CustomWeather, © 2017

See weather overviewHow to use our weather pages